Flag for U.S.A. Weather past 2 weeks in Memphis, Tennessee, U.S.A.

59 °F


Feels Like: 57 °F
Forecast: 56 / 73 °F
Wind: 9 mph from North

Location: Memphis International Airport

Current Time: Oct 10, 2015 at 4:27:04 AM

Latest Report: Oct 10, 2015 at 3:54 AM

Visibility: 9 mi

Pressure: 30.14 "Hg

Humidity: 84%

Dew point: 54 °F

Location of MemphisLocation

Historic Weather in Memphis — Graph


Memphis temperature yesterday

Maximum temperature yesterday: 86 °F (at 12:54 PM)
Minimum temperature yesterday: 62 °F (at 8:54 PM)
Average temperature yesterday: 72 °F

Past Weeks' High & Low Weather Summary

High89 °F (Oct 8, 1:54 PM)93% (Sep 28, 5:54 AM)30.16 "Hg (Sep 28, 5:54 AM)
Low53 °F (Oct 4, 7:54 AM)30% (Sep 25, 1:54 PM)29.84 "Hg (Sep 29, 3:54 PM)
Average70 °F69%29.99 "Hg
* Reported Sep 25 2:54 AM — Oct 10 2:54 AM, Memphis, Weather by CustomWeather, © 2015

Note: Actual official high and low records may vary slightly from our data, if they occured in-between our weather recording intervals... More about our weather records


Memphis weather history for previous 24 hours

Time TempWeatherWind HumidityBarometerVisibility
2:54 AM
Sat, Oct 10
59 °FMostly cloudy.6 mph87%30.15 "Hg9 mi
1:54 AM60 °FOvercast.8 mph86%30.14 "Hg9 mi
12:54 AM61 °FPassing clouds.8 mph83%30.15 "Hg9 mi
11:54 PM
Fri, Oct 9
62 °FOvercast.12 mph83%30.16 "Hg10 mi
10:54 PM63 °FPassing clouds.9 mph87%30.15 "Hg10 mi
9:54 PM63 °FOvercast.6 mph87%30.14 "Hg10 mi
8:54 PM62 °FLight rain. Mostly cloudy.6 mph90%30.14 "Hg10 mi
7:54 PM63 °FLight rain. Overcast.12 mph87%30.12 "Hg10 mi
6:54 PM64 °FMostly cloudy.10 mph84%30.10 "Hg10 mi
5:54 PM69 °FLight rain. Mostly cloudy.12 mph76%30.08 "Hg10 mi
4:54 PM74 °FMostly cloudy.16 mph62%30.07 "Hg10 mi
3:54 PM77 °FMostly cloudy.16 mph56%30.06 "Hg10 mi
2:54 PM81 °FMore clouds than sun.14 mph49%30.04 "Hg10 mi
1:54 PM83 °FCloudy.12 mph48%30.05 "Hg10 mi
12:54 PM86 °FBroken clouds.13 mph48%30.06 "Hg10 mi
11:54 AM83 °FPartly sunny.7 mph48%30.07 "Hg10 mi
10:54 AM83 °FScattered clouds.8 mph50%30.09 "Hg10 mi
9:54 AM79 °FScattered clouds.6 mph58%30.09 "Hg10 mi
8:54 AM72 °FPartly sunny.No wind84%30.09 "Hg10 mi
7:54 AM70 °FPartly sunny.No wind87%30.08 "Hg10 mi
6:54 AM69 °FPassing clouds.No wind87%30.07 "Hg9 mi
5:54 AM69 °FPassing clouds.No wind87%30.06 "Hg10 mi
4:54 AM69 °FPassing clouds.No wind87%30.04 "Hg10 mi
Weather by CustomWeather, © 2015

See weather overviewHow to use our weather pages